"Date","Average Accumulated Water Year PPT (in)","Average SWE (in)"
10/01/1981,0.191,0.000
10/02/1981,0.713,0.000
10/03/1981,0.912,0.000
10/04/1981,0.958,0.000
10/05/1981,0.958,0.000
10/06/1981,0.958,0.000
10/07/1981,1.547,0.000
10/08/1981,1.767,0.000
10/09/1981,1.820,0.000
10/10/1981,1.825,0.000
10/11/1981,1.826,0.000
10/12/1981,1.826,0.000
10/13/1981,1.826,0.000
10/14/1981,1.826,0.000
10/15/1981,1.826,0.000
10/16/1981,1.826,0.000
10/17/1981,1.827,0.000
10/18/1981,1.832,0.000
10/19/1981,2.062,0.000
10/20/1981,2.092,0.000
10/21/1981,2.092,0.000
10/22/1981,2.092,0.000
10/23/1981,2.238,0.000
10/24/1981,2.511,0.000
10/25/1981,2.511,0.000
10/26/1981,2.621,0.000
10/27/1981,3.681,0.000
10/28/1981,5.880,0.000
10/29/1981,5.888,0.000
10/30/1981,5.888,0.000
10/31/1981,5.888,0.000
11/01/1981,5.888,0.000
11/02/1981,5.888,0.000
11/03/1981,5.888,0.000
11/04/1981,5.888,0.000
11/05/1981,5.888,0.000
11/06/1981,6.211,0.000
11/07/1981,6.422,0.035
11/08/1981,6.449,0.038
11/09/1981,6.449,0.011
11/10/1981,6.449,0.012
11/11/1981,6.449,0.012
11/12/1981,6.449,0.010
11/13/1981,6.449,0.010
11/14/1981,6.449,0.009
11/15/1981,6.452,0.005
11/16/1981,7.486,0.002
11/17/1981,7.767,0.001
11/18/1981,7.828,0.000
11/19/1981,7.867,0.000
11/20/1981,8.145,0.000
11/21/1981,8.187,0.000
11/22/1981,8.244,0.012
11/23/1981,8.250,0.015
11/24/1981,8.250,0.015
11/25/1981,8.250,0.015
11/26/1981,8.250,0.015
11/27/1981,8.302,0.023
11/28/1981,8.303,0.003
11/29/1981,8.338,0.023
11/30/1981,8.361,0.040
12/01/1981,8.361,0.040
12/02/1981,8.692,0.172
12/03/1981,8.692,0.125
12/04/1981,8.711,0.130
12/05/1981,8.729,0.139
12/06/1981,8.802,0.225
12/07/1981,8.802,0.225
12/08/1981,8.957,0.272
12/09/1981,9.184,0.525
12/10/1981,9.248,0.614
12/11/1981,9.277,0.667
12/12/1981,9.379,0.761
12/13/1981,9.379,0.761
12/14/1981,9.379,0.761
12/15/1981,9.433,0.825
12/16/1981,9.533,0.886
12/17/1981,9.533,0.886
12/18/1981,9.659,1.096
12/19/1981,9.662,1.098
12/20/1981,9.691,1.127
12/21/1981,9.691,1.127
12/22/1981,9.770,1.172
12/23/1981,10.367,1.264
12/24/1981,10.386,0.890
12/25/1981,10.386,0.890
12/26/1981,10.386,0.890
12/27/1981,10.386,0.891
12/28/1981,10.438,0.919
12/29/1981,10.452,0.902
12/30/1981,10.457,0.904
12/31/1981,10.457,0.904
01/01/1982,10.633,0.980
01/02/1982,10.696,0.988
01/03/1982,10.696,0.989
01/04/1982,11.083,1.068
01/05/1982,11.219,0.979
01/06/1982,11.222,0.983
01/07/1982,11.361,1.033
01/08/1982,11.370,1.038
01/09/1982,11.391,1.052
01/10/1982,11.404,1.064
01/11/1982,11.405,1.065
01/12/1982,11.429,1.080
01/13/1982,11.447,1.100
01/14/1982,11.557,1.304
01/15/1982,11.564,1.308
01/16/1982,11.572,1.317
01/17/1982,11.589,1.330
01/18/1982,11.589,1.331
01/19/1982,11.590,1.332
01/20/1982,11.590,1.332
01/21/1982,11.622,1.381
01/22/1982,11.653,1.405
01/23/1982,11.946,1.759
01/24/1982,12.282,2.006
01/25/1982,12.302,2.019
01/26/1982,12.302,2.019
01/27/1982,12.303,2.020
01/28/1982,12.303,2.020
01/29/1982,12.303,2.020
01/30/1982,12.303,2.020
01/31/1982,12.478,2.145
02/01/1982,13.424,1.957
02/02/1982,13.426,1.960
02/03/1982,13.957,2.164
02/04/1982,14.288,2.076
02/05/1982,14.288,2.076
02/06/1982,14.289,2.077
02/07/1982,14.289,2.077
02/08/1982,14.289,2.077
02/09/1982,14.450,2.170
02/10/1982,14.537,2.226
02/11/1982,14.537,2.226
02/12/1982,14.537,2.226
02/13/1982,14.552,2.234
02/14/1982,14.601,2.261
02/15/1982,14.602,2.261
02/16/1982,14.602,1.943
02/17/1982,14.602,1.943
02/18/1982,14.602,1.944
02/19/1982,14.672,1.985
02/20/1982,14.912,2.242
02/21/1982,15.020,2.286
02/22/1982,15.215,2.467
02/23/1982,15.215,2.467
02/24/1982,15.218,2.469
02/25/1982,15.400,2.757
02/26/1982,15.400,2.757
02/27/1982,15.400,2.757
02/28/1982,15.400,2.757
03/01/1982,15.400,2.757
03/02/1982,15.426,2.770
03/03/1982,15.434,2.777
03/04/1982,15.434,2.777
03/05/1982,15.561,2.830
03/06/1982,15.561,2.830
03/07/1982,15.871,3.094
03/08/1982,16.278,3.673
03/09/1982,16.303,3.686
03/10/1982,16.338,3.703
03/11/1982,16.338,3.703
03/12/1982,16.355,2.894
03/13/1982,16.355,2.588
03/14/1982,16.462,2.304
03/15/1982,16.462,2.258
03/16/1982,16.466,2.237
03/17/1982,16.709,2.201
03/18/1982,16.844,2.207
03/19/1982,16.846,2.133
03/20/1982,16.846,2.128
03/21/1982,16.846,2.004
03/22/1982,16.849,1.890
03/23/1982,16.849,1.854
03/24/1982,16.849,1.789
03/25/1982,16.849,1.659
03/26/1982,17.172,1.541
03/27/1982,17.204,1.576
03/28/1982,17.205,1.577
03/29/1982,17.205,1.577
03/30/1982,17.205,1.389
03/31/1982,17.279,0.914
04/01/1982,17.573,0.512
04/02/1982,17.573,0.466
04/03/1982,17.651,0.416
04/04/1982,18.234,0.358
04/05/1982,18.279,0.383
04/06/1982,18.606,0.775
04/07/1982,18.820,1.030
04/08/1982,18.820,1.030
04/09/1982,18.820,1.030
04/10/1982,18.820,1.030
04/11/1982,18.825,0.737
04/12/1982,18.860,0.650
04/13/1982,18.871,0.463
04/14/1982,18.930,0.337
04/15/1982,18.930,0.303
04/16/1982,18.930,0.135
04/17/1982,18.930,0.013
04/18/1982,19.478,0.001
04/19/1982,19.478,0.000
04/20/1982,19.479,0.000
04/21/1982,19.595,0.000
04/22/1982,19.595,0.000
04/23/1982,19.595,0.000
04/24/1982,19.595,0.000
04/25/1982,19.595,0.000
04/26/1982,19.595,0.000
04/27/1982,19.757,0.000
04/28/1982,19.757,0.000
04/29/1982,19.757,0.000
04/30/1982,19.757,0.000
05/01/1982,19.757,0.000
05/02/1982,19.757,0.000
05/03/1982,19.759,0.000
05/04/1982,19.759,0.000
05/05/1982,19.759,0.000
05/06/1982,19.759,0.000
05/07/1982,19.759,0.000
05/08/1982,19.792,0.000
05/09/1982,20.255,0.000
05/10/1982,20.382,0.000
05/11/1982,20.382,0.000
05/12/1982,20.382,0.000
05/13/1982,20.406,0.000
05/14/1982,20.406,0.000
05/15/1982,20.406,0.000
05/16/1982,20.406,0.000
05/17/1982,20.425,0.000
05/18/1982,20.487,0.000
05/19/1982,20.595,0.000
05/20/1982,20.853,0.000
05/21/1982,20.956,0.000
05/22/1982,21.118,0.000
05/23/1982,21.723,0.000
05/24/1982,22.115,0.000
05/25/1982,22.131,0.000
05/26/1982,22.132,0.000
05/27/1982,22.132,0.000
05/28/1982,22.155,0.000
05/29/1982,22.935,0.000
05/30/1982,22.943,0.000
05/31/1982,23.454,0.000
06/01/1982,23.610,0.000
06/02/1982,24.103,0.000
06/03/1982,24.103,0.000
06/04/1982,24.608,0.000
06/05/1982,24.764,0.000
06/06/1982,25.717,0.000
06/07/1982,25.807,0.000
06/08/1982,25.807,0.000
06/09/1982,25.807,0.000
06/10/1982,25.807,0.000
06/11/1982,25.863,0.000
06/12/1982,25.884,0.000
06/13/1982,25.950,0.000
06/14/1982,26.191,0.000
06/15/1982,26.191,0.000
06/16/1982,26.233,0.000
06/17/1982,27.553,0.000
06/18/1982,27.553,0.000
06/19/1982,27.553,0.000
06/20/1982,27.714,0.000
06/21/1982,27.757,0.000
06/22/1982,27.784,0.000
06/23/1982,28.076,0.000
06/24/1982,28.082,0.000
06/25/1982,28.082,0.000
06/26/1982,28.084,0.000
06/27/1982,28.085,0.000
06/28/1982,28.254,0.000
06/29/1982,28.961,0.000
06/30/1982,29.921,0.000
07/01/1982,29.938,0.000
07/02/1982,29.938,0.000
07/03/1982,29.938,0.000
07/04/1982,30.020,0.000
07/05/1982,30.020,0.000
07/06/1982,30.020,0.000
07/07/1982,30.020,0.000
07/08/1982,30.105,0.000
07/09/1982,30.105,0.000
07/10/1982,30.105,0.000
07/11/1982,30.105,0.000
07/12/1982,30.338,0.000
07/13/1982,30.338,0.000
07/14/1982,30.338,0.000
07/15/1982,30.570,0.000
07/16/1982,30.570,0.000
07/17/1982,30.570,0.000
07/18/1982,30.667,0.000
07/19/1982,30.837,0.000
07/20/1982,31.224,0.000
07/21/1982,31.483,0.000
07/22/1982,31.483,0.000
07/23/1982,31.483,0.000
07/24/1982,31.483,0.000
07/25/1982,31.483,0.000
07/26/1982,31.483,0.000
07/27/1982,31.483,0.000
07/28/1982,32.304,0.000
07/29/1982,32.697,0.000
07/30/1982,32.697,0.000
07/31/1982,32.697,0.000
08/01/1982,32.974,0.000
08/02/1982,32.974,0.000
08/03/1982,33.071,0.000
08/04/1982,33.113,0.000
08/05/1982,33.237,0.000
08/06/1982,33.237,0.000
08/07/1982,33.237,0.000
08/08/1982,33.237,0.000
08/09/1982,33.414,0.000
08/10/1982,33.501,0.000
08/11/1982,33.503,0.000
08/12/1982,33.511,0.000
08/13/1982,33.511,0.000
08/14/1982,33.521,0.000
08/15/1982,33.521,0.000
08/16/1982,33.521,0.000
08/17/1982,33.521,0.000
08/18/1982,33.761,0.000
08/19/1982,33.761,0.000
08/20/1982,33.767,0.000
08/21/1982,33.987,0.000
08/22/1982,33.987,0.000
08/23/1982,33.998,0.000
08/24/1982,34.127,0.000
08/25/1982,34.404,0.000
08/26/1982,34.535,0.000
08/27/1982,34.535,0.000
08/28/1982,34.536,0.000
08/29/1982,34.536,0.000
08/30/1982,34.536,0.000
08/31/1982,34.536,0.000
09/01/1982,34.785,0.000
09/02/1982,34.814,0.000
09/03/1982,34.992,0.000
09/04/1982,35.026,0.000
09/05/1982,35.026,0.000
09/06/1982,35.026,0.000
09/07/1982,35.027,0.000
09/08/1982,35.028,0.000
09/09/1982,35.028,0.000
09/10/1982,35.028,0.000
09/11/1982,35.028,0.000
09/12/1982,35.028,0.000
09/13/1982,35.028,0.000
09/14/1982,35.028,0.000
09/15/1982,35.136,0.000
09/16/1982,35.168,0.000
09/17/1982,35.171,0.000
09/18/1982,35.172,0.000
09/19/1982,35.173,0.000
09/20/1982,35.173,0.000
09/21/1982,35.182,0.000
09/22/1982,35.182,0.000
09/23/1982,35.741,0.000
09/24/1982,36.208,0.000
09/25/1982,36.208,0.000
09/26/1982,36.208,0.000
09/27/1982,37.075,0.000
09/28/1982,37.138,0.000
09/29/1982,37.139,0.000
09/30/1982,37.139,0.000
10/01/1982,0.000,0.000
10/02/1982,0.000,0.000
10/03/1982,0.000,0.000
10/04/1982,0.000,0.000
10/05/1982,0.000,0.000
10/06/1982,0.000,0.000
10/07/1982,0.000,0.000
10/08/1982,0.102,0.000
10/09/1982,0.102,0.000
10/10/1982,0.102,0.000
10/11/1982,0.103,0.000
10/12/1982,0.171,0.000
10/13/1982,0.211,0.000
10/14/1982,0.290,0.000
10/15/1982,0.347,0.000
10/16/1982,0.420,0.000
10/17/1982,0.637,0.000
10/18/1982,0.655,0.000
10/19/1982,0.655,0.000
10/20/1982,0.655,0.000
10/21/1982,0.851,0.000
10/22/1982,0.851,0.000
10/23/1982,0.851,0.000
10/24/1982,0.851,0.000
10/25/1982,0.851,0.000
10/26/1982,0.851,0.000
10/27/1982,0.851,0.000
10/28/1982,0.851,0.000
10/29/1982,0.851,0.000
10/30/1982,0.851,0.000
10/31/1982,0.865,0.000
11/01/1982,1.275,0.000
11/02/1982,1.284,0.000
11/03/1982,1.284,0.000
11/04/1982,1.714,0.000
11/05/1982,2.799,0.000
11/06/1982,2.802,0.000
11/07/1982,2.802,0.000
11/08/1982,2.802,0.000
11/09/1982,2.802,0.000
11/10/1982,2.802,0.000
11/11/1982,2.809,0.000
11/12/1982,3.076,0.000
11/13/1982,3.267,0.000
11/14/1982,3.268,0.001
11/15/1982,3.268,0.001
11/16/1982,3.269,0.002
11/17/1982,3.269,0.002
11/18/1982,3.269,0.000
11/19/1982,3.273,0.000
11/20/1982,3.273,0.000
11/21/1982,3.569,0.000
11/22/1982,3.856,0.000
11/23/1982,4.284,0.000
11/24/1982,4.337,0.000
11/25/1982,4.353,0.004
11/26/1982,4.353,0.004
11/27/1982,4.546,0.160
11/28/1982,4.553,0.164
11/29/1982,4.933,0.220
11/30/1982,4.981,0.087
12/01/1982,4.981,0.037
12/02/1982,4.982,0.000
12/03/1982,4.982,0.000
12/04/1982,4.982,0.000
12/05/1982,4.986,0.000
12/06/1982,5.021,0.000
12/07/1982,5.035,0.000
12/08/1982,5.035,0.000
12/09/1982,5.124,0.065
12/10/1982,5.131,0.072
12/11/1982,5.141,0.080
12/12/1982,5.143,0.083
12/13/1982,5.162,0.098
12/14/1982,5.162,0.098
12/15/1982,5.162,0.081
12/16/1982,5.649,0.004
12/17/1982,5.671,0.005
12/18/1982,5.671,0.005
12/19/1982,5.671,0.005
12/20/1982,5.781,0.096
12/21/1982,5.955,0.261
12/22/1982,6.016,0.318
12/23/1982,6.374,0.645
12/24/1982,6.426,0.581
12/25/1982,6.457,0.365
12/26/1982,6.612,0.060
12/27/1982,6.612,0.047
12/28/1982,6.874,0.030
12/29/1982,6.874,0.000
12/30/1982,6.877,0.004
12/31/1982,6.877,0.004
01/01/1983,6.877,0.004
01/02/1983,6.877,0.004
01/03/1983,6.877,0.004
01/04/1983,6.878,0.005
01/05/1983,6.878,0.005
01/06/1983,6.878,0.005
01/07/1983,6.878,0.005
01/08/1983,6.879,0.004
01/09/1983,6.879,0.004
01/10/1983,6.954,0.041
01/11/1983,7.215,0.014
01/12/1983,7.219,0.006
01/13/1983,7.225,0.010
01/14/1983,7.225,0.010
01/15/1983,7.537,0.301
01/16/1983,8.188,0.934
01/17/1983,8.212,0.959
01/18/1983,8.222,0.969
01/19/1983,8.224,0.971
01/20/1983,8.233,0.980
01/21/1983,8.233,0.980
01/22/1983,8.243,0.991
01/23/1983,8.490,1.176
01/24/1983,8.885,1.140
01/25/1983,8.885,1.107
01/26/1983,8.888,1.111
01/27/1983,8.920,1.158
01/28/1983,8.921,1.159
01/29/1983,8.921,1.159
01/30/1983,8.921,1.159
01/31/1983,9.031,1.161
02/01/1983,9.031,1.153
02/02/1983,9.046,1.173
02/03/1983,9.734,0.668
02/04/1983,9.912,0.702
02/05/1983,9.940,0.730
02/06/1983,9.941,0.731
02/07/1983,10.050,0.915
02/08/1983,10.327,1.439
02/09/1983,10.344,1.456
02/10/1983,10.344,1.456
02/11/1983,10.344,1.456
02/12/1983,10.349,1.462
02/13/1983,10.349,1.462
02/14/1983,10.349,1.462
02/15/1983,10.349,1.439
02/16/1983,10.349,1.429
02/17/1983,10.349,1.041
02/18/1983,10.349,0.830
02/19/1983,10.349,0.830
02/20/1983,10.349,0.777
02/21/1983,10.349,0.656
02/22/1983,10.349,0.508
02/23/1983,10.349,0.428
02/24/1983,10.349,0.403
02/25/1983,10.370,0.428
02/26/1983,10.374,0.430
02/27/1983,10.375,0.431
02/28/1983,10.375,0.430
03/01/1983,10.375,0.332
03/02/1983,10.375,0.253
03/03/1983,10.375,0.184
03/04/1983,10.380,0.151
03/05/1983,10.504,0.063
03/06/1983,10.504,0.011
03/07/1983,10.610,0.001
03/08/1983,10.621,0.000
03/09/1983,10.677,0.000
03/10/1983,10.743,0.000
03/11/1983,11.369,0.205
03/12/1983,11.382,0.210
03/13/1983,11.392,0.216
03/14/1983,11.392,0.158
03/15/1983,11.392,0.046
03/16/1983,11.392,0.023
03/17/1983,11.392,0.013
03/18/1983,11.392,0.004
03/19/1983,11.689,0.000
03/20/1983,11.826,0.000
03/21/1983,11.866,0.003
03/22/1983,12.287,0.039
03/23/1983,12.319,0.066
03/24/1983,12.320,0.067
03/25/1983,12.320,0.067
03/26/1983,12.320,0.067
03/27/1983,12.320,0.062
03/28/1983,12.618,0.135
03/29/1983,12.716,0.165
03/30/1983,12.716,0.165
03/31/1983,12.716,0.165
04/01/1983,12.716,0.153
04/02/1983,12.719,0.109
04/03/1983,13.074,0.025
04/04/1983,13.116,0.003
04/05/1983,13.116,0.000
04/06/1983,13.116,0.000
04/07/1983,13.123,0.000
04/08/1983,13.617,0.000
04/09/1983,13.657,0.000
04/10/1983,14.054,0.000
04/11/1983,14.420,0.000
04/12/1983,14.609,0.000
04/13/1983,14.613,0.000
04/14/1983,14.613,0.000
04/15/1983,14.794,0.000
04/16/1983,17.070,0.106
04/17/1983,17.133,0.109
04/18/1983,17.137,0.077
04/19/1983,17.239,0.100
04/20/1983,17.906,0.609
04/21/1983,18.158,0.747
04/22/1983,18.159,0.558
04/23/1983,18.159,0.323
04/24/1983,18.344,0.021
04/25/1983,19.476,0.243
04/26/1983,19.588,0.216
04/27/1983,19.588,0.026
04/28/1983,19.590,0.000
04/29/1983,19.647,0.000
04/30/1983,20.295,0.000
05/01/1983,21.059,0.000
05/02/1983,21.487,0.000
05/03/1983,21.597,0.000
05/04/1983,21.757,0.000
05/05/1983,21.757,0.000
05/06/1983,21.800,0.000
05/07/1983,21.800,0.000
05/08/1983,21.807,0.000
05/09/1983,22.561,0.000
05/10/1983,22.561,0.000
05/11/1983,22.561,0.000
05/12/1983,22.561,0.000
05/13/1983,22.561,0.000
05/14/1983,22.561,0.000
05/15/1983,22.645,0.000
05/16/1983,23.064,0.000
05/17/1983,23.064,0.000
05/18/1983,23.064,0.000
05/19/1983,23.064,0.000
05/20/1983,23.307,0.000
05/21/1983,23.309,0.000
05/22/1983,23.309,0.000
05/23/1983,23.712,0.000
05/24/1983,24.063,0.000
05/25/1983,24.063,0.000
05/26/1983,24.123,0.000
05/27/1983,24.125,0.000
05/28/1983,24.125,0.000
05/29/1983,24.185,0.000
05/30/1983,24.301,0.000
05/31/1983,24.470,0.000
06/01/1983,24.783,0.000
06/02/1983,24.783,0.000
06/03/1983,24.783,0.000
06/04/1983,25.101,0.000
06/05/1983,25.101,0.000
06/06/1983,25.120,0.000
06/07/1983,25.505,0.000
06/08/1983,25.505,0.000
06/09/1983,25.505,0.000
06/10/1983,25.505,0.000
06/11/1983,25.660,0.000
06/12/1983,25.660,0.000
06/13/1983,25.660,0.000
06/14/1983,25.660,0.000
06/15/1983,25.660,0.000
06/16/1983,25.660,0.000
06/17/1983,25.778,0.000
06/18/1983,26.416,0.000
06/19/1983,26.942,0.000
06/20/1983,26.988,0.000
06/21/1983,26.990,0.000
06/22/1983,26.990,0.000
06/23/1983,26.990,0.000
06/24/1983,26.990,0.000
06/25/1983,26.990,0.000
06/26/1983,26.990,0.000
06/27/1983,26.991,0.000
06/28/1983,28.140,0.000
06/29/1983,29.215,0.000
06/30/1983,29.215,0.000
07/01/1983,29.215,0.000
07/02/1983,29.215,0.000
07/03/1983,29.215,0.000
07/04/1983,29.217,0.000
07/05/1983,29.217,0.000
07/06/1983,29.222,0.000
07/07/1983,29.222,0.000
07/08/1983,29.222,0.000
07/09/1983,29.283,0.000
07/10/1983,29.283,0.000
07/11/1983,29.283,0.000
07/12/1983,29.283,0.000
07/13/1983,29.283,0.000
07/14/1983,29.283,0.000
07/15/1983,29.283,0.000
07/16/1983,29.364,0.000
07/17/1983,29.364,0.000
07/18/1983,29.364,0.000
07/19/1983,29.365,0.000
07/20/1983,29.366,0.000
07/21/1983,29.366,0.000
07/22/1983,29.791,0.000
07/23/1983,29.791,0.000
07/24/1983,30.489,0.000
07/25/1983,30.622,0.000
07/26/1983,30.622,0.000
07/27/1983,30.622,0.000
07/28/1983,30.622,0.000
07/29/1983,30.628,0.000
07/30/1983,30.751,0.000
07/31/1983,30.755,0.000
08/01/1983,30.886,0.000
08/02/1983,31.189,0.000
08/03/1983,31.189,0.000
08/04/1983,31.189,0.000
08/05/1983,31.199,0.000
08/06/1983,31.234,0.000
08/07/1983,31.235,0.000
08/08/1983,31.263,0.000
08/09/1983,31.308,0.000
08/10/1983,31.308,0.000
08/11/1983,31.431,0.000
08/12/1983,32.385,0.000
08/13/1983,32.621,0.000
08/14/1983,32.621,0.000
08/15/1983,32.621,0.000
08/16/1983,32.621,0.000
08/17/1983,32.621,0.000
08/18/1983,32.947,0.000
08/19/1983,32.949,0.000
08/20/1983,32.949,0.000
08/21/1983,32.949,0.000
08/22/1983,32.956,0.000
08/23/1983,33.039,0.000
08/24/1983,33.039,0.000
08/25/1983,33.039,0.000
08/26/1983,33.039,0.000
08/27/1983,33.127,0.000
08/28/1983,33.128,0.000
08/29/1983,33.151,0.000
08/30/1983,33.181,0.000
08/31/1983,33.594,0.000
09/01/1983,33.749,0.000
09/02/1983,33.749,0.000
09/03/1983,33.749,0.000
09/04/1983,33.749,0.000
09/05/1983,33.749,0.000
09/06/1983,33.759,0.000
09/07/1983,33.783,0.000
09/08/1983,33.783,0.000
09/09/1983,33.783,0.000
09/10/1983,33.794,0.000
09/11/1983,33.796,0.000
09/12/1983,33.824,0.000
09/13/1983,33.824,0.000
09/14/1983,33.824,0.000
09/15/1983,33.824,0.000
09/16/1983,33.824,0.000
09/17/1983,33.850,0.000
09/18/1983,33.850,0.000
09/19/1983,33.861,0.000
09/20/1983,33.916,0.000
09/21/1983,33.922,0.000
09/22/1983,35.237,0.000
09/23/1983,35.237,0.000
09/24/1983,35.280,0.000
09/25/1983,35.280,0.000
09/26/1983,35.286,0.000
09/27/1983,35.286,0.000
09/28/1983,35.286,0.000
09/29/1983,35.286,0.000
09/30/1983,35.286,0.000
10/01/1983,0.039,0.000
10/02/1983,0.096,0.000
10/03/1983,0.098,0.000
10/04/1983,0.156,0.000
10/05/1983,0.410,0.000
10/06/1983,0.712,0.000
10/07/1983,0.734,0.000
10/08/1983,0.734,0.000
10/09/1983,0.734,0.000
10/10/1983,0.734,0.000
10/11/1983,0.734,0.000
10/12/1983,0.782,0.000
10/13/1983,1.038,0.000
10/14/1983,1.820,0.000
10/15/1983,1.820,0.000
10/16/1983,1.820,0.000
10/17/1983,1.820,0.000
10/18/1983,1.820,0.000
10/19/1983,2.040,0.000
10/20/1983,2.040,0.000
10/21/1983,2.040,0.000
10/22/1983,2.040,0.000
10/23/1983,2.148,0.000
10/24/1983,2.476,0.000
10/25/1983,2.476,0.000
10/26/1983,2.585,0.000
10/27/1983,2.675,0.000
10/28/1983,2.691,0.000
10/29/1983,2.706,0.000
10/30/1983,2.706,0.000
10/31/1983,2.706,0.000
11/01/1983,2.706,0.000
11/02/1983,2.786,0.000
11/03/1983,3.000,0.000
11/04/1983,3.085,0.000
11/05/1983,3.182,0.052
11/06/1983,3.222,0.046
11/07/1983,3.228,0.005
11/08/1983,3.228,0.000
11/09/1983,3.228,0.000
11/10/1983,3.228,0.000
11/11/1983,3.838,0.000
11/12/1983,4.298,0.054
11/13/1983,4.300,0.055
11/14/1983,4.300,0.055
11/15/1983,4.306,0.058
11/16/1983,4.734,0.047
11/17/1983,4.778,0.041
11/18/1983,4.806,0.060
11/19/1983,4.806,0.045
11/20/1983,4.819,0.019
11/21/1983,5.545,0.001
11/22/1983,5.545,0.000
11/23/1983,5.545,0.000
11/24/1983,5.638,0.000
11/25/1983,6.525,0.243
11/26/1983,6.539,0.258
11/27/1983,6.540,0.186
11/28/1983,6.628,0.172
11/29/1983,7.076,0.150
11/30/1983,7.076,0.132
12/01/1983,7.078,0.131
12/02/1983,7.078,0.131
12/03/1983,7.128,0.175
12/04/1983,7.279,0.241
12/05/1983,7.599,0.368
12/06/1983,7.607,0.323
12/07/1983,7.991,0.316
12/08/1983,7.997,0.324
12/09/1983,8.002,0.332
12/10/1983,8.013,0.336
12/11/1983,8.013,0.336
12/12/1983,8.019,0.342
12/13/1983,9.586,0.324
12/14/1983,11.935,0.307
12/15/1983,11.944,0.249
12/16/1983,11.944,0.208
12/17/1983,11.944,0.208
12/18/1983,11.946,0.210
12/19/1983,11.957,0.227
12/20/1983,11.958,0.228
12/21/1983,11.958,0.229
12/22/1983,12.343,0.488
12/23/1983,12.408,0.507
12/24/1983,12.420,0.514
12/25/1983,12.466,0.543
12/26/1983,12.470,0.546
12/27/1983,12.470,0.546
12/28/1983,12.471,0.547
12/29/1983,12.854,0.640
12/30/1983,12.866,0.648
12/31/1983,12.866,0.648
01/01/1984,12.866,0.648
01/02/1984,12.914,0.676
01/03/1984,12.914,0.676
01/04/1984,12.914,0.676
01/05/1984,12.914,0.634
01/06/1984,12.965,0.655
01/07/1984,12.972,0.659
01/08/1984,12.973,0.660
01/09/1984,13.040,0.775
01/10/1984,13.155,0.888
01/11/1984,13.375,1.272
01/12/1984,13.378,1.273
01/13/1984,13.378,1.274
01/14/1984,13.425,1.303
01/15/1984,13.470,1.366
01/16/1984,13.470,1.366
01/17/1984,13.472,1.367
01/18/1984,13.480,1.373
01/19/1984,13.586,1.555
01/20/1984,13.590,1.558
01/21/1984,13.590,1.558
01/22/1984,13.590,1.558
01/23/1984,13.590,1.559
01/24/1984,13.767,1.653
01/25/1984,13.830,1.369
01/26/1984,13.830,1.309
01/27/1984,13.830,1.293
01/28/1984,13.831,1.293
01/29/1984,13.831,1.294
01/30/1984,13.853,1.308
01/31/1984,14.065,1.665
02/01/1984,14.067,1.666
02/02/1984,14.067,1.666
02/03/1984,14.067,1.667
02/04/1984,14.141,1.304
02/05/1984,14.158,1.232
02/06/1984,14.249,1.325
02/07/1984,14.256,1.329
02/08/1984,14.264,1.338
02/09/1984,14.264,1.338
02/10/1984,14.264,1.338
02/11/1984,14.289,1.203
02/12/1984,14.375,1.071
02/13/1984,14.375,0.973
02/14/1984,14.410,0.747
02/15/1984,15.622,0.542
02/16/1984,16.409,0.493
02/17/1984,16.409,0.407
02/18/1984,16.519,0.319
02/19/1984,16.533,0.253
02/20/1984,16.692,0.195
02/21/1984,16.695,0.194
02/22/1984,16.715,0.207
02/23/1984,16.715,0.194
02/24/1984,16.715,0.132
02/25/1984,16.715,0.074
02/26/1984,16.811,0.121
02/27/1984,16.811,0.121
02/28/1984,17.077,0.313
02/29/1984,17.672,0.642
03/01/1984,17.705,0.676
03/02/1984,17.736,0.705
03/03/1984,17.752,0.728
03/04/1984,17.752,0.728
03/05/1984,17.755,0.731
03/06/1984,17.866,0.768
03/07/1984,17.867,0.771
03/08/1984,17.886,0.798
03/09/1984,17.964,0.869
03/10/1984,17.964,0.869
03/11/1984,17.966,0.870
03/12/1984,17.973,0.883
03/13/1984,18.060,0.986
03/14/1984,18.218,1.126
03/15/1984,18.218,1.126
03/16/1984,18.218,1.097
03/17/1984,18.255,0.934
03/18/1984,18.255,0.934
03/19/1984,18.264,0.939
03/20/1984,18.264,0.929
03/21/1984,18.264,0.558
03/22/1984,18.489,0.479
03/23/1984,18.533,0.488
03/24/1984,18.536,0.491
03/25/1984,18.536,0.490
03/26/1984,18.536,0.469
03/27/1984,18.536,0.469
03/28/1984,18.578,0.461
03/29/1984,19.524,1.697
03/30/1984,20.637,3.177
03/31/1984,20.667,3.189
04/01/1984,20.667,3.172
04/02/1984,20.667,2.884
04/03/1984,20.667,2.397
04/04/1984,20.733,1.646
04/05/1984,21.102,0.971
04/06/1984,22.617,0.484
04/07/1984,22.686,0.397
04/08/1984,22.686,0.360
04/09/1984,22.686,0.329
04/10/1984,22.686,0.284
04/11/1984,22.686,0.249
04/12/1984,22.686,0.168
04/13/1984,22.686,0.070
04/14/1984,22.900,0.032
04/15/1984,23.561,0.015
04/16/1984,23.720,0.008
04/17/1984,24.081,0.004
04/18/1984,24.198,0.001
04/19/1984,24.387,0.000
04/20/1984,24.785,0.000
04/21/1984,24.786,0.000
04/22/1984,24.786,0.000
04/23/1984,24.803,0.000
04/24/1984,24.908,0.000
04/25/1984,25.222,0.000
04/26/1984,25.260,0.000
04/27/1984,25.260,0.000
04/28/1984,25.260,0.000
04/29/1984,25.434,0.000
04/30/1984,25.444,0.000
05/01/1984,25.545,0.000
05/02/1984,25.545,0.000
05/03/1984,25.545,0.000
05/04/1984,26.272,0.000
05/05/1984,26.344,0.000
05/06/1984,26.347,0.000
05/07/1984,26.347,0.000
05/08/1984,26.624,0.000
05/09/1984,26.859,0.000
05/10/1984,26.904,0.000
05/11/1984,26.943,0.000
05/12/1984,27.575,0.000
05/13/1984,27.788,0.000
05/14/1984,28.391,0.000
05/15/1984,28.498,0.000
05/16/1984,28.547,0.000
05/17/1984,28.547,0.000
05/18/1984,28.547,0.000
05/19/1984,28.650,0.000
05/20/1984,28.787,0.000
05/21/1984,29.138,0.000
05/22/1984,29.199,0.000
05/23/1984,29.216,0.000
05/24/1984,29.575,0.000
05/25/1984,29.575,0.000
05/26/1984,29.684,0.000
05/27/1984,29.833,0.000
05/28/1984,30.648,0.000
05/29/1984,32.110,0.000
05/30/1984,32.368,0.000
05/31/1984,32.382,0.000
06/01/1984,32.382,0.000
06/02/1984,32.382,0.000
06/03/1984,32.389,0.000
06/04/1984,32.464,0.000
06/05/1984,32.464,0.000
06/06/1984,32.541,0.000
06/07/1984,32.596,0.000
06/08/1984,32.596,0.000
06/09/1984,32.596,0.000
06/10/1984,32.631,0.000
06/11/1984,32.631,0.000
06/12/1984,32.631,0.000
06/13/1984,32.631,0.000
06/14/1984,33.267,0.000
06/15/1984,33.268,0.000
06/16/1984,33.268,0.000
06/17/1984,33.271,0.000
06/18/1984,34.008,0.000
06/19/1984,34.705,0.000
06/20/1984,34.705,0.000
06/21/1984,34.705,0.000
06/22/1984,34.705,0.000
06/23/1984,34.705,0.000
06/24/1984,34.864,0.000
06/25/1984,35.332,0.000
06/26/1984,35.418,0.000
06/27/1984,35.418,0.000
06/28/1984,35.731,0.000
06/29/1984,35.758,0.000
06/30/1984,36.132,0.000
07/01/1984,36.201,0.000
07/02/1984,36.463,0.000
07/03/1984,36.464,0.000
07/04/1984,36.485,0.000
07/05/1984,37.004,0.000